Cedar Rapids, IA

3:26 PM CST on December 09, 2019 (GMT -0600)
The Eastern Iowa Airport

Weather History for KCID - August, 2019

Change the Weather History Date:

Sunday, August 11, 2019

  Actual Average Record
Temperature  
Mean Temperature 75 °F 72 °F  
Max Temperature 82 °F 82 °F 100 °F (1941)
Min Temperature 68 °F 61 °F 47 °F (2004)
Degree Days  
Heating Degree Days 0 0  
Month to date heating degree days 0 0  
Since 1 June heating degree days 11 33  
Since 1 July heating degree days 0 4  
Cooling Degree Days 10 7  
Month to date cooling degree days 77 79  
Year to date cooling degree days 579 546  
Since 1 June cooling degree days 551 497  
Growing Degree Days 25 (Base 50)    
Moisture  
Dew Point 70 °F    
Average Humidity 84    
Maximum Humidity 100    
Minimum Humidity 68    
Precipitation  
Precipitation 0.20 in 0.14 in 4.91 in (2016)
Month to date precipitation 1.09 1.55  
Year to date precipitation 23.68 22.37  
Sea Level Pressure  
Sea Level Pressure 29.93 in    
Wind  
Wind Speed 5 mph (South)    
Max Wind Speed 16 mph    
Max Gust Speed 19 mph    
Visibility 8 miles    
Events Rain , Thunderstorm    
T = Trace of Precipitation, MM = Missing Value Source: NWS Daily Summary

Daily Weather History Graph

Daily Weather History Graph

Search for Another Location

Airport or City:

Astronomy

Aug. 11, 2019 Rise Set
Actual Time 6:10 AM CDT 8:12 PM CDT
Civil Twilight 5:40 AM CDT 8:43 PM CDT
Nautical Twilight 5:02 AM CDT 9:20 PM CDT
Astronomical Twilight 4:22 AM CDT 10:00 PM CDT
Moon 5:54 PM CDT (8/11) 2:29 AM CDT (8/11)
Length of Visible Light 15h 02m
Length of Day
14h 02m
Waxing Gibbous, 87% of the Moon is Illuminated
Aug 11
Waxing Gibbous
Aug 15
Full
Aug 23
Last Quarter
Aug 30
New
Sep 5
First Quarter

Hourly Weather History & Observations

Time (CDT) Temp. Heat Index Dew Point Humidity Pressure Visibility Wind Dir Wind Speed Gust Speed Precip Events Conditions
12:52 AM 73.0 °F - 63.0 °F 71% 29.94 in 10.0 mi SSE 9.2 mph - N/A   Overcast
1:52 AM 72.0 °F - 64.0 °F 76% 29.92 in 10.0 mi South 8.1 mph - N/A   Mostly Cloudy
2:52 AM 71.1 °F - 64.0 °F 78% 29.91 in 10.0 mi South 9.2 mph - N/A   Clear
3:52 AM 71.1 °F - 64.0 °F 78% 29.90 in 10.0 mi South 8.1 mph - N/A   Mostly Cloudy
4:52 AM 70.0 °F - 64.9 °F 84% 29.90 in 10.0 mi South 6.9 mph - N/A   Mostly Cloudy
5:52 AM 69.1 °F - 64.9 °F 87% 29.90 in 10.0 mi South 5.8 mph - N/A   Mostly Cloudy
6:15 AM 69.1 °F - 66.0 °F 90% 29.92 in 10.0 mi South 4.6 mph - N/A Thunderstorm Overcast
6:30 AM 70.0 °F - 66.9 °F 90% 29.95 in 4.0 mi North 16.1 mph - 0.07 in Rain Light Rain
6:33 AM 69.1 °F - 66.9 °F 93% 29.94 in 2.0 mi North 16.1 mph - 0.13 in Rain Heavy Rain
6:35 AM 68.0 °F - 66.9 °F 96% 29.94 in 1.8 mi North 16.1 mph - 0.13 in Rain Heavy Rain
6:37 AM 68.0 °F - 66.9 °F 96% 29.94 in 1.8 mi North 16.1 mph - 0.14 in Rain Rain
6:45 AM 69.1 °F - 68.0 °F 96% 29.94 in 6.0 mi North 16.1 mph - 0.14 in Rain Light Rain
6:52 AM 69.1 °F - 68.0 °F 96% 29.92 in 4.0 mi NE 6.9 mph - 0.16 in Rain Rain
7:12 AM 69.1 °F - 68.0 °F 96% 29.94 in 9.0 mi East 8.1 mph - 0.04 in   Overcast
7:52 AM 71.1 °F - 69.1 °F 93% 29.94 in 10.0 mi Calm Calm - 0.04 in Thunderstorm Mostly Cloudy
8:29 AM 71.1 °F - 70.0 °F 96% 29.96 in 10.0 mi East 9.2 mph - N/A   Overcast
8:52 AM 70.0 °F - 69.1 °F 97% 29.96 in 10.0 mi East 12.7 mph 19.6 mph N/A   Overcast
9:52 AM 72.0 °F - 70.0 °F 93% 29.94 in 10.0 mi SE 5.8 mph - N/A   Overcast
10:52 AM 73.9 °F - 71.1 °F 91% 29.97 in 10.0 mi SSE 6.9 mph - N/A   Overcast
11:52 AM 73.9 °F - 70.0 °F 87% 29.97 in 10.0 mi South 9.2 mph - N/A   Overcast
12:52 PM 77.0 °F - 72.0 °F 84% 29.96 in 10.0 mi South 5.8 mph - N/A   Overcast
1:25 PM 75.9 °F - 73.0 °F 91% 29.97 in 10.0 mi SW 6.9 mph - N/A   Overcast
1:50 PM 78.8 °F - 73.4 °F 83% 29.95 in 10.0 mi Calm Calm - N/A   Partly Cloudy
1:52 PM 79.0 °F - 73.0 °F 82% 29.93 in 10.0 mi Calm Calm - N/A   Partly Cloudy
2:52 PM 80.1 °F 84.5 °F 73.9 °F 81% 29.92 in 10.0 mi WSW 8.1 mph - N/A   Scattered Clouds
3:01 PM 80.1 °F 84.5 °F 73.9 °F 81% 29.93 in 10.0 mi West 8.1 mph - N/A   Mostly Cloudy
3:33 PM 82.0 °F 88.6 °F 75.0 °F 79% 29.93 in 10.0 mi NNW 5.8 mph - N/A   Scattered Clouds
3:52 PM 82.0 °F 87.9 °F 73.9 °F 76% 29.92 in 10.0 mi NNW 4.6 mph - N/A   Partly Cloudy
4:52 PM 82.0 °F 87.9 °F 73.9 °F 76% 29.91 in 10.0 mi Variable 4.6 mph - N/A   Clear
5:52 PM 81.0 °F 85.8 °F 73.0 °F 77% 29.91 in 10.0 mi WSW 5.8 mph - N/A   Partly Cloudy
6:52 PM 80.1 °F 85.1 °F 75.0 °F 85% 29.91 in 10.0 mi WSW 3.5 mph - N/A   Clear
7:52 PM 78.1 °F - 73.9 °F 87% 29.89 in 10.0 mi Calm Calm - N/A   Clear
8:52 PM 77.0 °F - 73.9 °F 90% 29.90 in 10.0 mi ENE 4.6 mph - N/A   Clear
9:52 PM 73.0 °F - 72.0 °F 96% 29.91 in 5.0 mi South 3.5 mph - N/A   Clear
10:52 PM 71.1 °F - 71.1 °F 100% 29.92 in 10.0 mi Calm Calm - N/A   Clear
11:48 PM 69.8 °F - 69.8 °F 100% 29.93 in 1.8 mi Calm Calm - N/A   Partly Cloudy
11:49 PM 70.0 °F - 70.0 °F 100% 29.92 in 1.5 mi Calm Calm - N/A   Partly Cloudy
11:54 PM 70.0 °F - 70.0 °F 100% 29.93 in 0.8 mi Calm Calm - N/A   Partly Cloudy